sat.trackr.live / text

‹ back to catalog

SDX01

NORAD 62459 · 2024-253A

PAYLOAD ACTIVE UNKNOWN

§ Identity

Operator
Country
IND
Launch date
2024-12-30
Launch site
SRILR
Launch vehicle
Mass (kg)
RCS (m²)

External: N2YO · Heavens-Above · Gunter

§ Orbital elements

Epoch: 2026-09-22T22:07:27.234336Z

Period
90.25 min
Inclination
54.9904°
Eccentricity
0.0007896
Mean motion
15.95623271 rev/d
Perigee alt
281.3 km
Apogee alt
291.8 km
Semi-major
6,664.7 km
B*
6.5293e-4
RAAN
239.7753°
Arg perigee
74.3021°
Mean anomaly
285.8903°
Rev number
9,798

§ Raw data

SDX011 62459U 24253A   26265.92184299  .00265807  38713-4  65293-3 0  99992 62459  54.9904 239.7753 0007896  74.3021 285.8903 15.95623271 97981

JSON: /api/v1/satellites/62459 · /tle

For live sub-satellite position, see the globe view (requires WebGL).

§ Visibility from observer

Set your observer location to see the next 7 days of passes ≥ 10°. The values pass through the URL so the page stays shareable.

No JS? Fill the form by hand. The geolocation button needs JavaScript.

§ Radio — SatNOGS DB

ModeDescriptionDownlinkUplink
BPSK Mode U TLM 436.500 MHz
BPSK S-band telemetry 2.285 GHz
FM S-band telemetry 2.234 GHz

3 transmitters · refreshed weekly from db.satnogs.org